Theta_e
317 317 318 318 318 318 318 318 319 319 319 319 319 319 318 317 317 315 310 317 321 328 321 312 313 311 309 306 310 310 300 298 300 302 305 312 311 320 323 320 322 324 326 342 348
316 317 317 317 317 317 317 317 317 317 318 319 319 318 318 317 312 310 321 331 331 329 315 310 305 309 305 304 306 305 300 300 305 306 305 310 311 314 318 316 317 322 328 338 338
315 315 317 318 318 318 317 316 316 316 317 317 317 318 318 316 309 312 336 332 333 326 316 312 309 307 303 305 305 305 300 304 305 307 308 308 309 313 312 313 319 319 325 329 332
315 315 315 315 315 316 316 314 315 315 315 316 316 316 317 313 299 316 330 332 329 319 314 309 307 304 301 300 305 301 305 305 306 308 308 306 309 310 312 315 320 323 326 327 338
315 314 314 315 315 316 316 316 315 316 316 316 316 316 313 307 306 318 329 327 321 315 311 307 305 304 300 302 304 303 304 306 308 307 307 308 306 308 310 316 320 324 325 325 329
315 315 315 314 314 315 315 315 315 315 316 315 315 315 308 300 316 319 321 320 315 315 313 312 308 308 304 303 302 304 305 306 307 306 307 304 305 307 310 316 317 321 324 325 326
315 315 315 315 313 314 314 314 314 314 314 315 315 312 305 305 319 321 321 320 319 316 312 316 314 309 308 303 306 304 301 304 305 306 305 306 302 303 310 314 314 314 324 324 326
315 314 314 314 314 313 313 314 314 314 314 315 317 312 302 317 320 316 319 317 320 320 317 316 316 310 307 308 304 301 301 296 303 305 306 305 297 304 309 311 311 314 316 323 324
313 313 312 313 313 313 312 312 313 314 315 317 312 310 304 321 312 318 318 316 317 317 317 317 314 307 305 300 297 298 293 295 298 305 304 303 299 305 309 308 308 310 316 320 324
312 311 311 312 312 312 311 311 313 314 314 315 313 304 308 307 315 316 318 318 314 313 311 310 307 301 300 298 290 293 295 297 297 301 303 301 300 304 307 307 308 309 312 316 321
311 310 311 311 312 311 310 309 306 304 308 306 307 306 309 316 319 315 317 315 312 309 302 306 297 294 297 299 300 299 298 298 301 303 301 300 300 303 306 306 306 308 311 313 318
311 311 310 311 311 311 309 304 306 310 301 309 310 310 313 315 309 312 316 308 305 300 304 299 294 299 301 301 299 298 297 297 301 305 303 301 300 303 305 306 307 308 309 312 317
310 310 310 310 310 308 310 311 315 312 300 302 306 308 309 311 308 309 311 308 303 301 300 296 298 301 300 299 298 298 296 297 298 303 304 302 299 301 305 307 308 309 311 312 313
310 309 310 309 305 309 304 311 314 316 296 297 301 305 308 310 305 314 312 307 305 300 300 299 302 300 298 298 299 295 300 300 299 298 293 302 291 300 303 304 307 308 309 311 313
309 309 309 308 304 302 308 314 314 312 283 300 305 314 311 306 307 308 314 308 302 300 300 297 298 298 297 298 301 298 302 300 300 297 297 297 294 298 304 302 305 308 309 311 314
309 308 308 305 307 308 312 314 309 293 283 296 304 305 305 306 306 309 308 311 309 302 302 300 304 302 301 302 302 303 300 300 300 297 290 295 294 295 299 302 307 311 311 312 314
308 308 307 307 301 309 313 307 291 284 296 294 296 301 301 302 301 305 302 301 299 294 295 299 299 302 303 299 302 300 297 290 289 289 288 297 294 297 306 308 309 310 310 313 314
307 305 306 309 312 312 310 298 284 291 292 298 297 298 296 301 299 299 302 297 303 299 295 294 290 298 302 299 297 297 297 291 285 287 290 298 292 298 308 310 311 311 313 315 316
305 307 306 310 313 313 301 289 289 293 296 296 297 293 294 299 298 298 297 299 301 303 295 294 294 300 302 303 302 297 295 301 295 296 292 296 299 306 308 307 307 308 313 314 317
302 304 305 315 316 312 297 289 293 298 298 297 291 295 291 295 296 298 297 299 300 304 305 299 293 300 302 303 303 301 303 294 296 287 285 292 295 296 302 304 308 310 313 314 316
303 297 306 318 317 304 289 291 295 299 299 297 295 294 295 295 294 295 296 298 302 303 306 301 297 297 302 298 296 298 297 299 299 297 289 288 292 306 304 307 302 311 313 313 313
299 291 305 309 299 299 292 295 297 299 302 299 299 300 296 295 294 295 295 298 304 303 299 302 299 294 297 301 303 301 299 299 294 293 295 292 289 309 308 307 306 310 312 313 313
294 296 307 303 290 290 294 294 296 295 297 300 297 300 302 298 293 297 298 302 304 300 301 303 299 290 293 299 302 298 299 302 302 301 295 292 294 307 307 306 307 310 311 311 313
295 290 297 302 294 288 290 291 293 300 299 301 300 302 300 294 299 297 297 300 303 303 306 306 299 295 291 295 299 296 297 300 300 296 294 296 296 301 304 304 307 309 311 311 312
296 292 295 288 290 293 293 293 287 293 300 301 298 294 295 294 296 295 297 298 300 303 304 305 298 297 300 299 299 299 298 299 299 299 294 297 297 302 305 307 308 310 310 309 310
293 291 293 290 293 292 292 288 290 292 296 295 292 293 297 295 296 294 296 297 296 303 304 308 299 300 295 298 300 298 300 300 300 300 299 299 300 308 309 310 309 309 309 308 307
301 301 294 291 292 290 290 289 291 295 298 297 294 295 294 295 298 302 301 301 300 300 304 305 300 297 291 297 298 291 296 300 301 302 300 294 303 308 307 306 306 308 308 306 307
Wind_Speed
16 15 14 14 14 14 15 15 14 14 14 14 14 14 15 17 20 21 24 19 10 12 4 13 14 15 18 18 20 20 17 19 27 26 20 22 24 13 8 12 21 13 14 13 16
15 14 13 12 13 13 13 14 15 15 15 14 14 13 15 16 21 27 25 19 21 13 11 15 16 16 15 17 19 20 17 27 23 22 23 24 24 16 19 18 20 13 2 18 16
16 16 17 16 15 12 13 15 15 15 15 14 14 13 14 16 18 9 14 26 17 18 18 16 18 17 19 19 20 23 24 22 24 24 23 24 25 24 21 14 18 19 13 6 16
18 18 18 17 18 16 14 17 16 16 16 15 13 12 12 14 9 7 13 14 17 16 16 19 21 20 20 21 23 25 26 25 23 22 18 24 22 24 23 14 14 20 20 4 7
17 18 19 18 18 18 17 17 17 16 15 14 13 12 11 12 20 12 14 15 11 14 20 21 20 20 22 20 21 25 22 23 22 22 23 23 22 23 24 22 14 6 9 5 1
15 16 17 18 18 17 17 17 15 15 15 15 14 10 13 23 16 22 18 14 14 17 19 21 16 18 19 21 23 20 22 20 19 21 19 23 24 21 20 20 19 9 18 11 8
14 16 17 18 17 16 16 16 15 15 18 18 16 12 16 32 12 14 21 20 18 20 19 19 20 18 16 19 19 22 21 18 20 19 20 17 23 29 18 20 22 22 15 16 14
16 18 20 20 19 18 20 19 19 20 20 18 16 12 13 19 19 28 24 20 20 21 20 19 18 19 19 17 20 17 21 21 20 19 18 22 24 23 23 21 22 24 19 14 10
20 20 22 22 21 21 21 22 24 24 20 16 8 10 14 8 20 22 24 22 18 21 19 16 13 18 16 20 17 21 17 22 21 20 19 22 25 20 20 22 24 23 21 15 20
21 20 20 20 20 21 22 25 25 17 10 9 11 8 11 16 13 23 24 22 20 16 16 16 14 18 17 17 18 19 22 18 19 21 18 22 23 20 20 22 20 24 22 22 17
21 20 20 21 22 20 18 13 7 8 11 14 15 12 15 17 12 18 24 23 19 20 21 23 19 20 25 25 23 22 22 20 19 16 18 21 22 21 20 21 21 22 18 22 19
21 22 22 23 24 22 15 8 15 18 24 27 27 30 31 21 14 17 24 25 25 24 24 20 23 24 24 25 26 25 22 18 11 10 14 17 18 18 17 19 19 21 20 20 21
21 21 23 25 25 20 13 17 19 20 18 26 30 36 32 27 26 21 28 28 28 28 28 26 21 26 26 25 25 23 20 18 14 12 16 12 18 19 18 22 21 20 20 23 24
22 21 21 22 21 11 17 21 14 12 13 19 29 32 32 25 27 28 31 29 19 29 26 25 27 26 27 26 22 21 19 20 15 12 13 15 12 16 11 17 18 18 18 20 22
23 23 21 13 16 14 14 17 16 9 10 14 11 18 15 31 9 33 22 29 29 22 26 26 24 25 25 25 22 16 17 18 15 13 15 20 12 12 12 8 14 16 19 21 19
27 26 22 17 12 22 21 15 11 9 17 10 11 12 19 26 33 18 31 27 24 28 22 26 24 23 20 18 19 19 17 16 19 16 15 19 18 13 15 4 9 18 9 15 11
29 32 27 17 17 17 16 11 10 14 9 17 21 18 6 10 4 26 23 31 26 27 24 24 26 23 19 19 21 19 17 12 13 13 13 19 19 15 14 10 4 15 20 9 15
30 35 21 16 16 17 10 10 19 12 25 27 32 25 18 7 4 24 23 19 30 27 17 19 22 26 21 24 18 22 20 12 17 12 14 18 16 7 14 15 16 18 10 3 14
35 13 16 16 17 13 9 16 20 23 27 27 28 24 22 4 10 5 10 25 17 28 21 15 21 25 23 19 22 21 21 20 18 6 5 13 7 15 14 10 17 16 17 11 14
13 17 19 9 8 4 6 18 27 29 30 29 27 27 21 13 11 10 10 6 16 19 24 14 15 18 20 19 21 21 18 18 12 7 7 15 10 7 13 10 20 18 17 17 16
10 10 10 10 4 2 10 20 24 30 24 25 28 25 24 8 4 4 3 12 11 17 24 18 5 11 20 19 18 16 10 10 7 3 7 6 4 6 10 5 14 19 16 17 18
9 11 13 16 8 5 10 23 24 20 24 18 13 21 7 2 7 9 7 4 11 4 7 24 10 10 15 22 19 19 16 14 7 9 6 7 5 16 8 9 11 5 16 16 17
10 14 2 12 8 11 14 19 8 18 18 9 12 14 4 5 7 18 13 9 10 6 9 11 8 5 8 9 8 20 20 9 10 5 5 10 6 10 10 13 2 14 17 16 16
6 10 8 3 2 9 9 14 18 14 14 8 11 15 8 2 13 2 4 1 5 9 18 11 7 8 9 11 9 17 20 15 11 4 6 4 9 10 5 6 17 17 16 16 14
2 5 8 10 15 21 20 19 22 11 11 13 8 14 17 11 8 7 2 7 10 8 12 11 13 19 12 8 9 13 16 19 18 10 7 6 3 18 20 20 8 5 10 13 14
5 5 6 12 20 20 13 10 21 26 12 12 11 17 14 2 2 4 7 7 7 15 21 20 14 11 8 8 12 18 13 9 10 11 3 6 6 12 9 11 9 6 12 10 13
7 6 4 13 16 16 12 22 27 25 8 12 18 15 5 5 7 11 0 4 6 9 10 10 11 16 12 16 12 4 5 10 9 6 7 1 11 15 13 13 7 5 11 14 11
Wind_Direction
344 340 340 335 329 328 325 321 316 311 306 303 305 306 307 310 300 273 258 241 223 203 241 276 227 216 221 238 235 232 238 240 241 245 247 260 265 232 167 245 267 285 276 91 112
337 334 326 322 318 316 311 313 312 308 304 303 303 306 309 314 298 279 255 234 228 160 226 229 236 218 217 219 234 227 232 238 245 250 262 268 267 245 191 203 237 233 322 99 132
340 340 336 332 324 321 320 315 310 306 303 300 304 303 302 311 294 256 347 216 185 175 227 237 245 226 224 224 222 229 239 238 244 256 262 266 273 278 275 213 201 224 251 239 145
336 334 332 329 327 321 311 313 310 308 306 301 296 299 301 294 267 63 81 99 150 193 220 230 234 239 226 229 229 229 236 240 261 269 255 258 273 273 284 267 247 208 222 184 225
331 331 328 325 322 317 314 307 306 304 301 294 292 295 294 235 243 233 133 147 167 196 208 213 221 226 233 232 238 237 242 239 239 246 258 271 264 258 271 287 246 63 118 176 129
320 321 320 318 316 313 310 306 301 298 296 291 288 280 261 259 261 250 193 179 189 199 211 221 224 224 237 236 240 241 243 248 253 253 240 248 259 260 256 265 279 206 171 212 222
307 313 313 312 308 307 298 292 290 291 291 290 279 259 258 243 275 274 193 190 211 204 221 223 238 242 235 247 246 256 263 254 236 249 249 249 246 247 244 254 263 269 183 189 206
322 320 318 313 311 312 305 300 294 289 284 281 270 250 247 254 242 253 265 223 199 225 224 237 225 249 251 261 252 243 240 248 243 228 233 252 245 241 245 242 252 262 262 190 221
329 325 322 317 317 312 306 299 292 285 279 270 236 214 259 208 224 231 223 223 201 214 214 238 248 240 231 238 239 231 237 233 244 247 227 224 247 246 256 227 242 260 257 230 206
326 324 320 314 308 307 306 293 277 285 247 236 258 193 250 245 212 212 204 225 194 202 211 217 233 230 223 223 223 228 221 238 243 223 233 237 238 239 245 256 256 230 249 255 229
325 320 317 313 309 304 309 311 197 195 221 209 203 231 278 223 253 190 198 210 209 201 209 208 217 216 214 223 227 240 232 228 221 223 246 229 235 242 237 230 240 258 238 242 245
317 315 314 311 308 303 289 259 271 309 295 222 251 235 253 269 242 193 190 196 203 206 206 212 221 221 219 221 227 235 251 259 241 238 230 250 258 251 250 242 236 242 247 252 249
316 314 314 312 308 293 227 246 270 279 274 270 254 229 241 243 240 212 183 199 200 205 204 214 204 221 229 222 220 227 238 245 250 247 231 264 262 249 244 236 230 240 235 240 251
316 315 316 322 298 321 289 265 293 332 280 284 244 233 231 217 244 237 181 202 200 211 214 214 227 202 220 229 223 219 214 240 244 247 261 242 277 270 260 253 225 227 240 236 245
314 312 309 314 292 287 283 336 318 288 273 311 29 144 210 197 185 205 204 199 220 204 209 217 215 225 202 224 216 225 218 219 236 245 262 268 254 261 285 281 281 236 224 235 230
314 308 306 297 262 251 265 262 276 237 247 259 292 174 204 199 216 226 208 204 214 235 219 230 215 222 220 210 216 218 234 224 222 230 233 241 255 251 260 254 326 337 319 252 220
313 307 300 278 251 276 300 217 241 234 277 259 245 293 309 330 286 226 213 195 208 215 228 216 234 208 231 204 205 214 213 218 224 226 240 243 243 253 95 90 68 39 17 308 75
311 304 281 256 240 234 249 234 236 263 240 256 278 277 265 137 223 279 230 230 206 219 213 222 205 209 204 221 193 208 211 219 218 221 246 248 241 176 127 112 96 74 17 124 103
311 301 286 272 261 211 218 234 241 248 258 270 279 278 279 153 189 271 353 192 239 216 220 226 237 208 205 199 214 195 218 229 252 57 284 287 121 132 146 149 146 166 191 122 102
309 295 280 339 192 93 239 264 269 276 281 285 284 287 276 256 205 204 157 173 232 273 257 201 230 224 199 194 214 235 213 217 229 170 245 265 282 123 159 176 189 154 134 126 111
296 306 305 103 118 232 239 253 256 257 266 288 284 274 271 337 31 222 242 153 164 280 274 222 167 233 257 200 198 216 196 246 299 212 204 246 258 106 143 124 332 133 127 121 117
309 296 320 322 300 253 260 265 272 313 305 288 316 270 259 179 278 200 230 239 108 228 206 222 179 247 240 203 205 216 220 190 217 234 186 174 314 12 15 57 82 259 131 124 120
311 294 339 62 303 309 326 315 267 275 278 279 230 252 299 173 202 219 192 221 207 236 213 216 189 190 267 236 231 214 223 115 249 75 306 281 119 16 40 57 143 205 126 121 116
292 306 351 58 185 281 307 300 301 302 272 315 304 314 278 125 228 234 206 222 248 224 233 263 164 168 214 203 191 209 220 148 193 193 177 338 134 109 88 23 284 114 125 120 112
287 323 349 328 324 327 336 326 336 318 348 32 354 8 317 231 219 240 241 286 283 251 252 225 197 165 203 69 250 217 205 210 183 168 190 179 225 167 154 178 117 27 89 126 117
320 319 340 293 313 327 3 335 311 325 338 7 353 338 286 120 218 295 221 224 250 211 242 228 189 116 137 111 182 214 211 234 190 242 157 35 91 119 127 75 121 75 117 69 66
332 308 304 313 324 337 337 323 324 329 43 37 339 306 35 36 339 305 64 308 305 312 246 158 179 142 157 161 122 37 257 240 136 90 150 112 117 105 117 82 338 82 105 92 73